Tracking 30918 objects as of 2-Jul-2025
HD Live streaming from Space Station
objects crossing your sky now

ARIANE 1 DEB

Track ARIANE 1 DEB now!
10-day predictions


NORAD ID: 39107
Int'l Code: 1986-019VV
Perigee: 757.1 km
Apogee: 973.0 km
Inclination: 98.7 °
Period: 102.1 minutes
Semi major axis: 7236 km
RCS: 0.0163 m2 (small)
Launch date: February 22, 1986
Source: France (FR)
Launch site: FRENCH GUIANA (FRGUI)

Note: This is SATELLITE DEBRIS
Your satellite tracking list
Your tracking list is empty




NASA's NSSDC Master Catalog

Two Line Element Set (TLE):
1 39107U 86019VV  25182.80041455  .00000768  00000-0  41181-3 0  9998
2 39107  98.6805 213.7326 0149143 282.3684  76.0829 14.10426671615328
Source of the keplerian elements: AFSPC